User: anonymous   Login
Location: Allentsteig
(48.6833°N, 15.3167°E)
Time: 00:06:08
(UTC+00:00)
Language:

Terra - Orbit

View from above orbital plane
View from above orbital plane
View from above satellite
View from above satellite

Ground track
Ground track

The orbit data is extracted from the following two-line orbital elements,

1 25994U 99068A   20332.76208934  .00000107  00000-0  33806-4 0  9992
2 25994  98.1994  44.6513 0001142  91.5199  18.5652 14.57119028114096
Epoch (UTC): 27 November 2020 18:17:24
Eccentricity: 0.0001142
inclination: 98.1994°
perigee height: 701 km
apogee height: 703 km
right ascension of ascending node: 44.6513°
argument of perigee: 91.5199°
revolutions per day: 14.57119028
mean anomaly at epoch: 18.5652°
orbit number at epoch: 11409

The dashed part of the orbit path shows where the satellite is in the earth's shadow,  

DLR